{"data":{"norad_id":59535,"epoch":"2026-09-21T10:19:44.448384Z","epoch_age_seconds":88174,"freshness":"FRESH","line1":"1 59535U 24074B   26264.43037556  .00000654  00000+0  33272-4 0  9992","line2":"2 59535  43.0026 314.2590 0001318 274.6901  85.3800 15.27578915135991","mean_motion":15.27578915,"eccentricity":0.0001318,"inclination_deg":43.0026,"raan_deg":314.259,"arg_perigee_deg":274.6901,"mean_anomaly_deg":85.38,"bstar":3.3272e-5,"rev_number":13599,"period_min":94.266815668898,"perigee_km":482.14804016624,"apogee_km":483.95664967756,"semimajor_km":6861.1893449219,"source":"CELESTRAK","updated_at":"2026-09-22T09:00:48.967694Z"}}